Tracking 19575 objects as of 18-Feb-2019
HD Live streaming from Space Station
objects crossing your sky now

STTW-T1

Track STTW-T1 now!
10-day predictions
STTW-T1 is classified as:


NORAD ID: 14670
Int'l Code: 1984-008A
Perigee: 487.0 km
Apogee: 6,316.9 km
Inclination: 36.1 °
Period: 160.3 minutes
Semi major axis: 9772 km
RCS: 3.9341 m2 (large)
Launch date: January 29, 1984
Source: People's Republic of China (PRC)
Launch site: Xichang Space Center, China (XSC)
aabbcc
Your satellite tracking list
Your tracking list is empty




NASA's NSSDC Master Catalog

Two Line Element Set (TLE):
1 14670U 84008A   19048.52968002 -.00000132  00000-0 -53691-4 0  9998
2 14670  36.1102 102.4704 2982643 110.5617 283.7332  8.98595032142684
Source of the keplerian elements: AFSPC